Wind_Speed
3 3 3 4 4 4 5 6 6 7 7 6 6 6 6 6 7 7 7 7 8 8 8 8 8 8 9 9 9 9 9 9 8 8 8 7 7 6 6 6 7 7 7
4 4 4 4 4 4 4 4 5 5 4 4 4 4 4 5 5 6 6 6 7 7 7 7 7 7 7 7 7 7 8 8 8 7 7 6 6 6 5 5 6 6 7
5 5 5 6 5 4 3 3 3 3 2 2 2 3 3 4 5 5 6 6 6 6 7 7 7 7 7 6 6 6 7 7 6 6 6 5 5 5 4 4 5 6 6
5 7 7 7 6 5 4 3 2 1 0 1 2 3 3 4 5 6 6 6 6 6 6 6 6 7 6 6 5 5 5 5 5 5 4 4 3 4 4 4 4 5 6
7 8 8 7 6 5 4 3 2 1 1 2 3 4 4 5 6 7 7 7 7 7 6 6 6 6 6 6 5 4 4 4 3 3 3 3 2 2 3 3 4 4 5
8 9 9 8 7 6 6 4 3 2 3 3 4 5 6 7 7 8 8 9 8 8 8 7 7 7 7 6 5 5 4 4 3 3 2 1 1 1 2 3 4 4 4
10 10 10 9 8 7 6 5 4 4 4 5 6 6 7 8 9 9 10 10 10 11 10 10 9 9 8 7 7 6 6 5 4 4 3 2 1 2 2 3 3 4 4
11 11 11 10 8 7 6 5 5 5 6 6 7 8 9 10 10 11 12 12 12 13 13 13 12 11 11 9 9 8 8 7 6 5 5 4 3 3 3 4 4 5 5
12 12 11 10 9 7 6 6 6 6 7 8 9 10 10 11 13 13 13 14 14 15 15 15 15 13 13 12 11 10 10 9 9 8 7 6 6 5 5 6 6 6 6
13 12 12 10 9 8 7 7 7 8 9 10 10 11 13 13 14 15 15 16 17 17 17 17 16 16 15 14 13 13 12 11 11 10 9 9 8 8 7 8 9 8 8
14 13 12 11 9 8 8 8 8 9 10 11 12 13 14 15 15 16 17 17 17 18 18 18 17 17 16 16 15 15 14 14 13 13 12 11 10 10 10 10 11 11 11
15 14 13 11 10 9 9 9 9 10 11 11 12 13 14 15 16 16 17 17 18 18 18 18 18 17 17 17 16 16 16 16 16 15 14 13 13 12 12 11 12 13 13
16 15 14 13 11 10 10 10 10 10 11 11 12 14 14 14 15 15 16 17 17 17 17 17 17 17 16 16 16 16 16 16 16 16 16 16 15 14 14 14 14 15 14
19 17 16 15 13 11 10 10 10 10 11 12 13 14 14 14 14 15 15 16 16 16 16 16 16 16 16 15 15 15 16 16 17 17 17 17 16 16 16 16 15 16 16
19 17 16 14 13 11 9 9 9 10 11 12 13 13 14 14 14 14 15 15 15 15 15 15 15 16 16 15 15 16 16 16 16 17 17 18 18 17 17 17 16 16 17
18 17 16 14 12 10 9 9 9 10 11 11 12 13 13 14 14 14 14 13 14 15 16 16 16 16 16 16 16 16 16 16 16 16 17 18 19 19 19 19 18 17 18
17 15 14 12 10 9 8 8 9 10 10 11 12 12 12 12 12 13 13 13 13 14 15 16 16 16 16 16 16 16 16 16 16 16 17 18 18 19 20 20 19 19 18
14 13 12 10 8 7 7 7 7 8 9 10 10 10 10 9 10 10 11 12 12 13 13 14 15 15 15 16 16 16 16 16 16 16 16 17 18 19 20 20 20 20 20
14 13 12 9 8 7 6 5 6 7 8 8 9 9 8 9 9 9 10 10 10 11 12 13 14 14 15 15 16 16 16 15 15 16 16 17 19 19 20 21 21 22 22
13 11 11 8 7 6 5 5 5 6 7 7 8 8 7 8 8 9 9 9 10 11 12 13 13 13 14 15 15 15 15 15 15 16 16 17 18 19 21 21 22 23 24
12 11 10 9 7 6 5 5 5 6 6 6 7 6 7 7 7 8 8 9 9 10 10 11 11 12 13 13 14 14 14 14 15 15 16 17 18 19 20 22 23 24 25
12 11 10 8 7 6 5 4 5 5 6 6 6 6 6 6 7 7 8 8 9 10 10 11 12 12 12 13 14 14 14 14 15 16 16 17 18 19 20 22 23 24 25
11 11 9 8 7 6 5 4 4 5 5 5 5 5 5 6 6 7 7 8 9 10 10 11 12 12 13 13 14 14 15 15 15 16 17 18 19 20 21 22 23 24 26
11 10 9 8 6 5 4 4 4 4 3 3 3 4 5 5 6 7 8 9 9 10 11 12 12 13 13 14 14 15 15 16 16 16 17 18 20 21 22 23 24 25 26
10 9 8 7 6 5 4 4 4 3 2 2 3 4 4 5 6 6 7 8 9 10 11 13 13 14 14 15 15 16 17 17 18 19 19 20 21 22 23 25 26 26 27
8 8 8 7 6 5 5 4 4 3 2 2 3 3 4 5 5 6 8 9 10 11 13 14 15 16 16 17 17 17 18 19 20 20 21 22 23 24 25 26 27 28 29
Wind_Direction
214 216 221 189 170 149 128 114 103 94 85 76 66 54 47 40 32 28 25 21 19 19 20 21 22 22 25 29 31 32 36 40 42 46 54 69 78 87 97 105 111 114 115
223 218 222 203 187 168 144 127 113 97 84 72 60 46 35 26 21 15 11 7 6 7 7 9 13 14 17 23 26 26 30 35 40 46 54 65 76 87 98 110 117 122 122
228 225 224 215 200 187 167 146 126 101 80 59 43 25 9 1 357 356 356 355 355 356 357 359 1 2 4 11 15 18 21 26 33 43 52 61 76 94 104 114 123 130 130
237 233 227 221 206 200 193 180 163 128 55 343 340 345 341 339 338 339 339 342 344 345 347 349 350 349 348 352 358 3 8 13 21 31 42 55 78 105 116 126 134 138 137
239 233 225 219 213 212 210 204 212 241 285 305 310 315 320 324 326 327 327 328 328 330 332 334 337 335 334 333 336 340 347 354 3 8 22 49 83 115 129 140 149 149 148
232 227 222 219 218 220 219 216 227 252 278 292 297 301 307 312 315 316 316 315 313 314 313 314 318 321 323 323 320 318 321 324 330 330 340 7 114 145 158 160 163 161 161
225 225 221 222 224 228 225 227 236 252 268 280 289 295 300 304 307 309 310 307 304 303 304 303 304 306 309 309 309 305 303 306 306 302 302 295 250 207 199 199 191 182 177
224 229 222 219 221 226 230 238 248 257 267 276 284 290 295 297 301 305 305 302 299 299 298 298 297 297 299 299 300 298 294 293 293 290 286 279 265 246 233 224 218 209 199
226 228 222 215 216 225 232 244 259 268 273 278 284 289 293 296 297 298 299 299 298 297 296 294 294 294 294 290 289 291 290 287 283 281 280 274 262 248 242 237 227 222 215
223 221 218 217 220 224 235 251 264 271 275 280 286 289 292 294 296 296 295 295 294 293 292 292 290 290 289 286 282 282 282 280 277 275 275 272 267 255 247 240 229 224 223
217 218 219 219 220 226 238 253 264 270 276 283 287 289 290 291 293 293 293 293 293 292 291 290 290 288 284 283 281 279 275 273 272 271 270 267 262 256 251 243 233 227 225
214 218 221 221 223 230 241 255 266 271 277 284 287 288 289 289 290 291 291 290 290 291 290 289 289 288 284 281 279 280 276 271 268 266 265 264 260 256 252 247 240 233 227
215 219 222 225 230 234 245 257 267 275 280 284 288 290 291 291 290 291 291 290 289 289 290 289 286 287 285 283 280 280 278 272 266 263 262 261 259 256 253 249 245 239 232
214 216 222 229 233 235 246 259 271 277 280 285 289 290 292 292 291 292 290 288 288 288 288 289 285 284 285 284 282 282 280 274 268 263 260 259 257 256 254 252 247 241 235
213 215 220 227 230 238 247 263 276 280 283 287 291 294 294 292 291 291 291 287 287 288 288 289 286 285 285 283 282 282 280 274 271 264 257 256 255 254 254 252 249 243 240
213 214 217 222 231 240 253 263 278 283 287 291 296 295 296 294 290 288 288 290 289 287 286 287 287 287 286 284 283 283 282 276 270 265 258 253 251 253 253 253 251 248 242
209 210 213 221 230 243 251 264 277 284 288 294 299 298 295 293 290 289 287 289 290 289 289 289 289 289 286 284 284 282 280 278 270 266 260 254 251 251 252 252 252 249 245
211 208 210 218 226 233 247 264 277 287 292 295 296 296 294 295 294 294 293 293 292 293 293 294 293 291 288 287 285 283 281 278 272 267 262 257 253 252 252 252 250 248 247
204 202 207 211 215 220 241 263 278 285 290 292 294 294 296 298 299 302 301 300 301 299 299 299 296 293 291 289 287 285 282 278 276 272 266 260 256 256 254 253 250 249 249
196 196 198 198 206 219 240 257 272 281 286 293 296 298 301 306 308 309 309 308 307 305 306 306 303 300 297 294 291 289 284 278 275 272 269 265 261 260 256 255 253 251 250
188 190 191 195 205 219 236 249 267 280 286 298 304 309 317 318 316 315 317 316 313 314 316 317 316 311 304 301 297 294 289 282 277 273 270 267 262 261 258 257 254 253 251
183 185 191 198 209 215 222 244 266 280 287 299 308 314 317 319 322 324 324 322 322 323 322 322 322 320 314 308 304 300 295 289 284 279 274 270 266 264 261 259 256 255 253
188 195 198 197 197 209 228 252 272 281 289 296 305 315 321 325 329 331 332 331 332 332 329 327 326 324 322 318 313 308 302 297 292 285 279 273 270 266 263 261 260 258 255
191 192 190 191 199 212 229 251 266 278 289 295 307 319 326 331 334 338 340 339 338 337 334 332 330 327 325 321 317 313 310 305 301 295 287 281 275 271 268 265 262 259 257
184 189 192 196 203 210 219 237 248 262 280 294 310 318 325 332 336 339 342 343 342 340 338 337 335 333 329 324 320 315 310 306 302 297 292 287 281 276 271 268 266 263 260
184 191 194 196 203 210 216 226 235 248 268 287 299 310 323 333 339 342 344 344 345 343 340 338 336 334 331 327 322 317 311 307 302 297 293 289 285 279 274 271 268 265 263
Height
5894 5895 5896 5896 5896 5896 5896 5896 5897 5898 5898 5899 5900 5901 5901 5901 5902 5902 5902 5902 5902 5902 5902 5902 5901 5901 5901 5901 5900 5900 5900 5900 5900 5899 5899 5899 5899 5899 5900 5900 5900 5900 5900
5894 5894 5895 5895 5896 5896 5896 5896 5897 5897 5898 5899 5900 5901 5901 5901 5902 5902 5902 5902 5902 5902 5902 5902 5901 5901 5901 5901 5901 5900 5900 5900 5900 5900 5900 5900 5900 5900 5900 5901 5901 5901 5901
5893 5894 5895 5895 5895 5895 5896 5896 5896 5897 5898 5899 5899 5900 5900 5901 5901 5901 5901 5901 5901 5901 5901 5901 5901 5901 5901 5901 5901 5901 5900 5900 5900 5900 5900 5901 5901 5901 5901 5902 5902 5902 5902
5892 5893 5894 5894 5894 5895 5895 5896 5896 5897 5897 5898 5899 5899 5900 5900 5900 5900 5901 5901 5901 5900 5900 5901 5901 5901 5901 5901 5901 5900 5900 5900 5900 5901 5901 5901 5901 5901 5902 5902 5902 5903 5903
5891 5892 5893 5893 5894 5894 5894 5895 5895 5896 5897 5897 5898 5898 5899 5899 5899 5899 5899 5899 5899 5899 5899 5900 5900 5900 5900 5900 5900 5900 5900 5900 5900 5900 5900 5901 5901 5901 5902 5902 5903 5903 5903
5890 5891 5892 5892 5893 5893 5893 5894 5895 5895 5896 5897 5897 5897 5898 5898 5898 5898 5898 5898 5898 5898 5898 5898 5898 5899 5899 5899 5899 5899 5899 5900 5900 5900 5900 5900 5901 5901 5902 5902 5903 5903 5904
5889 5889 5890 5891 5891 5892 5892 5893 5894 5895 5895 5896 5896 5896 5897 5897 5897 5896 5896 5896 5896 5896 5896 5897 5897 5897 5897 5898 5898 5898 5898 5899 5899 5899 5899 5900 5900 5900 5901 5902 5902 5903 5903
5887 5888 5889 5889 5890 5891 5892 5892 5893 5894 5894 5895 5895 5895 5895 5895 5895 5895 5895 5894 5894 5894 5894 5894 5895 5895 5896 5896 5896 5896 5897 5897 5898 5898 5898 5899 5899 5900 5900 5901 5902 5903 5903
5885 5886 5887 5888 5888 5890 5891 5891 5892 5893 5893 5893 5894 5894 5894 5894 5893 5893 5893 5892 5892 5891 5891 5892 5892 5893 5893 5894 5894 5894 5895 5895 5896 5896 5897 5897 5898 5898 5899 5900 5901 5902 5903
5883 5884 5885 5886 5887 5888 5889 5890 5891 5891 5891 5892 5892 5892 5892 5892 5891 5891 5890 5890 5889 5889 5889 5888 5889 5890 5890 5891 5891 5892 5892 5893 5893 5894 5895 5895 5896 5897 5897 5898 5899 5900 5902
5880 5882 5883 5884 5885 5886 5887 5888 5889 5889 5889 5889 5889 5889 5889 5889 5889 5888 5888 5887 5886 5886 5886 5885 5886 5886 5887 5887 5888 5889 5889 5890 5891 5891 5892 5893 5894 5895 5895 5896 5897 5899 5900
5878 5880 5881 5882 5883 5884 5885 5886 5886 5887 5887 5887 5887 5887 5886 5886 5886 5885 5885 5884 5884 5883 5883 5883 5883 5883 5883 5883 5884 5885 5886 5886 5887 5888 5889 5890 5891 5892 5893 5894 5895 5896 5897
5874 5877 5879 5880 5881 5882 5882 5883 5884 5884 5884 5884 5884 5884 5884 5883 5883 5882 5882 5881 5881 5880 5880 5880 5880 5880 5880 5880 5881 5881 5882 5882 5883 5884 5885 5886 5887 5889 5890 5891 5892 5893 5895
5871 5874 5876 5877 5879 5879 5880 5880 5881 5881 5881 5881 5881 5881 5881 5881 5880 5879 5879 5878 5878 5878 5877 5877 5877 5877 5877 5877 5878 5878 5878 5879 5880 5880 5881 5882 5884 5885 5886 5887 5888 5890 5891
5867 5870 5872 5874 5876 5877 5877 5878 5878 5879 5879 5879 5879 5878 5878 5878 5877 5877 5876 5875 5875 5875 5875 5874 5874 5874 5874 5874 5875 5875 5875 5875 5876 5876 5877 5878 5880 5881 5882 5883 5884 5886 5888
5865 5867 5869 5871 5873 5874 5875 5875 5876 5876 5877 5877 5876 5876 5875 5875 5875 5874 5874 5873 5873 5872 5872 5872 5871 5871 5871 5871 5871 5871 5871 5872 5872 5873 5873 5874 5875 5877 5878 5879 5881 5882 5884
5861 5864 5866 5869 5871 5872 5873 5873 5874 5874 5874 5874 5874 5874 5873 5873 5872 5872 5871 5871 5871 5870 5869 5869 5869 5868 5868 5868 5868 5868 5868 5868 5868 5869 5869 5870 5871 5873 5874 5875 5877 5878 5880
5859 5861 5864 5866 5868 5870 5871 5871 5871 5872 5872 5872 5872 5872 5871 5871 5870 5870 5869 5869 5868 5868 5867 5867 5866 5865 5865 5864 5864 5864 5864 5864 5864 5865 5865 5866 5867 5869 5870 5871 5873 5874 5876
5856 5859 5862 5864 5866 5868 5869 5869 5870 5870 5870 5870 5870 5870 5869 5869 5869 5868 5868 5867 5867 5866 5865 5864 5863 5862 5862 5861 5861 5861 5861 5861 5861 5861 5861 5862 5863 5864 5866 5867 5868 5870 5871
5854 5857 5860 5862 5865 5866 5867 5868 5869 5869 5869 5869 5868 5868 5868 5867 5867 5867 5866 5866 5865 5864 5863 5862 5861 5860 5859 5858 5858 5857 5857 5857 5858 5858 5858 5858 5859 5860 5861 5862 5864 5865 5867
5854 5856 5859 5861 5863 5865 5866 5867 5867 5868 5868 5867 5867 5866 5866 5866 5866 5865 5865 5864 5863 5862 5861 5860 5859 5858 5856 5855 5855 5854 5854 5854 5854 5854 5855 5855 5855 5856 5856 5857 5859 5860 5862
5852 5855 5858 5860 5862 5863 5864 5865 5866 5866 5866 5865 5865 5865 5865 5864 5864 5864 5863 5863 5862 5860 5859 5858 5857 5856 5854 5853 5852 5851 5851 5851 5851 5851 5851 5851 5851 5851 5852 5852 5853 5855 5856
5852 5854 5857 5858 5860 5861 5862 5863 5864 5864 5864 5864 5864 5864 5863 5863 5863 5862 5862 5861 5860 5859 5858 5856 5855 5854 5852 5851 5850 5849 5848 5847 5847 5847 5846 5846 5846 5846 5847 5847 5848 5849 5850
5851 5853 5855 5857 5858 5860 5860 5861 5862 5863 5863 5863 5863 5862 5862 5862 5861 5861 5860 5859 5858 5857 5856 5855 5853 5852 5850 5849 5847 5846 5845 5844 5843 5843 5842 5842 5841 5841 5841 5842 5842 5843 5844
5851 5852 5854 5856 5857 5858 5859 5860 5861 5861 5861 5861 5861 5861 5861 5860 5860 5859 5858 5857 5856 5855 5854 5852 5851 5849 5848 5846 5844 5843 5841 5840 5839 5838 5838 5837 5836 5836 5835 5835 5836 5836 5837
5850 5852 5853 5854 5856 5857 5858 5859 5859 5859 5859 5860 5860 5860 5859 5859 5858 5858 5857 5856 5854 5853 5852 5850 5848 5847 5845 5843 5841 5840 5838 5836 5835 5833 5832 5831 5830 5830 5829 5829 5829 5829 5830